Showing default

CHINASAT-26, 55686

Orbit data source: Space-Track

CHINASAT-26, 55686 is a payload satellite owned by China Satcom (CN) in GEO that was launched on Thu, 23 Feb 2023 UTC via a CHANG ZHENG 3B launch vehicle from the Xichang Space Center, China (XSC). Payload-class satellites include a variety of spacecraft equipped with specific instruments for various scientific and technological missions. These include communications satellites like Starlink; space stations such as the ISS; scientific satellites like the Hubble; Earth observation satellites from companies like Planet Labs, Umbra, and HawkEye 360; GPS; miniature CubeSats for education and research; and military/defense satellites.

Not visible in the next 10 days
Identifier
55686, 2023-023A
Orbit
GEO
Country
Flag of CNCN / PRC
Related business
Manufacturer
CAST?
Mission
Operational Civil Communications
Bus & Motor
DFH-4?, DFH-4 LAE
Mass
~5,250 kg wet, ~2,500 kg dry
Launch date (UTC)
2023-02-23 (3 years ago)
Launch vehicle
CHANG ZHENG 3B
Launch site
Xichang Space Center, China (XSC)
Object type
Payload
Rocket body
Debris
Shape & HBR
Box + 2 Pan, 15.0 m
Radar Cross Section
34.063 m², Large (>1 m²)

Expand to show TLE details & history
Last TLE update: 12 hours ago

TLE from 12 hours ago
0 CHINASAT-26
1 55686U 23023A   26172.91388433 -.00000354  00000-0  00000+0 0  9999
2 55686   0.0668  71.1386 0003654  18.8407 274.2455  1.00271654 12271
Epoch: 2026-06-21T21:55Z
TLE epoch observation values (Epoch: 2026-06-21T21:55:59.606Z)
Latitude
-0.05769°
Longitude
125.08732°
Altitude
35,784.982 km
Speed
3.075 km/s
True Right ascension
00h 16m 46s
True Declination
0° 03' 27"
Sunlit
Object was in daylight at epoch
Visualization orbit readout
Latitude
Unknown
Longitude
Unknown
Altitude
Unknown
Speed
Unknown
Apparent Right ascension
Unknown
Apparent Declination
Unknown
Sunlit
N/A
Visualization observer readout
Local Sidereal Time
21:24:50
Azimuth
Unknown
Elevation
Unknown
Doppler factor
Unknown
Orbital elements
Apogee altitude
35,803.109 km
Perigee altitude
35,772.295 km
Semi-major axis
42,165.839 km
Eccentricity
0.00037
Inclination
0.0668°
RAAN
71.1386°
Arg. of periapsis
18.8407°
True anomaly
274.20374°
Mean anomaly
274.2455°
Eccentric anomaly
274.22462°
Mean motion
0.25067 °/min
Orbital period
1,436.15 mins
BSTAR
0
Loading maneuver chart data...
Computing Atmospheric mass density...
Loading historical data...
Loading historical data...
Loading historical data...
Loading historical data...
Loading historical data...
Loading historical data...
Loading historical data...
Other satellites on launch #23 in the year 2023 (2023-02-23 UTC)

Documentation

Showing up to 5 results
|